[[{"header":{"parameterUnit":"m.s-1","parameterCategory":1,"la1":30.2991,"la2":30.254,"lo1":-89.0895,"lo2":-89.0444,"dy":0.0017,"dx":0.0017,"nx":28,"ny":28,"refTime":"2023-04-17T15:00:00:Z","depth":0,"parameterNumber":2,"parameterNumberName":"U-component_of_WINDS"},"data":[0,0,0,0,0,0,0,0,0,0,0,0,0,0,0,0,0,0,0,0,0,0,0,0,0,0,0,0,0,0,0,0,0,0,0,0,0,0,0,0,0,0,0,0,0,0,0,0,0,0,0,0,0,0,0,0,0,0,-3.171,-3.171,0,-3.1655,-3.1654,-3.1654,-3.1477,-3.1473,-3.1469,-3.1466,-3.1414,-3.1416,-3.1418,0,0,0,0,0,0,0,0,0,0,0,0,0,-3.1668,-3.167,-3.171,-3.171,-3.1709,-3.1655,-3.1654,-3.1653,-3.1478,-3.1473,-3.1468,-3.1464,-3.1413,-3.1416,-3.1418,0,0,0,0,0,0,0,0,0,0,0,0,0,-3.1657,-3.1671,-3.1711,-3.1615,-3.1606,-3.1655,-3.1654,-3.1653,-3.1479,-3.1473,-3.1467,-3.1462,-3.1412,-3.1415,-3.1419,-3.1558,0,0,-3.1429,-3.1431,0,0,0,0,0,0,0,0,-3.1658,-3.1659,-3.163,-3.1622,-3.1611,-3.1567,-3.162,-3.1621,-3.148,-3.1527,-3.1466,-3.1459,-3.147,-3.1468,-3.1471,-3.1555,-3.1553,-3.1429,-3.1431,-3.1433,-3.1434,0,0,0,0,0,0,0,-3.1659,-3.166,-3.1688,-3.1629,-3.1618,-3.1576,-3.1568,-3.1619,-3.1532,-3.1523,-3.151,-3.1505,-3.1464,-3.1468,-3.1468,-3.1552,-3.1429,-3.1432,-3.1434,-3.1436,-3.1747,-3.1753,0,0,0,0,0,0,-3.1673,-3.1662,-3.169,-3.1687,-3.1621,-3.1581,-3.1572,-3.1587,-3.1531,-3.1517,-3.151,-3.1497,-3.1465,-3.1464,-3.1466,-3.1624,-3.1433,-3.1436,-3.1438,-3.1741,-3.1748,-3.1755,0,0,0,0,0,0,-3.1673,-3.1677,-3.1692,-3.1671,-3.167,-3.1588,-3.1606,-3.1589,-3.1593,-3.1522,-3.1506,-3.1531,-3.146,-3.1461,-3.1535,-3.1619,-3.1438,-3.1441,-3.1733,-3.1743,-3.1752,-3.1942,0,0,0,0,0,0,-3.1672,-3.1678,-3.1729,-3.1673,-3.1671,-3.1763,-3.1612,-3.1592,-3.1599,-3.1581,-3.1536,-3.1523,-3.1456,-3.1531,-3.1539,-3.1621,-3.1443,-3.1726,-3.1738,-3.1749,-3.1928,-3.1957,-3.1981,0,0,0,0,0,-3.1671,-3.1786,-3.1733,-3.1737,-3.1733,-3.1768,-3.1767,-3.1685,-3.1606,-3.1657,-3.1612,-3.1525,-3.1609,-3.1541,-3.1547,-3.1632,-3.172,-3.1734,-3.1748,-3.1916,-3.1951,-3.1981,0,0,0,0,0,0,-3.1856,-3.1777,-3.1717,-3.1817,-3.18,-3.1738,-3.18,-3.1725,-3.1732,-3.1715,-3.1615,-3.1606,-3.1695,-3.1671,-3.1596,-3.1763,-3.165,-3.1666,-3.1776,-3.1808,-3.1835,-3.1839,-3.1446,0,0,0,0,0,-3.1908,-3.1941,-3.1871,-3.1966,-3.1961,-3.1883,-3.1894,-3.1833,-3.1812,-3.1804,-3.1764,-3.1749,-3.1771,-3.1788,-3.1805,-3.1924,-3.1911,-3.1985,-3.2012,-3.2034,-3.2049,-3.211,-3.2141,-3.1801,-3.1801,-3.1801,0,0,-3.2017,-3.1978,-3.2005,-3.2002,-3.1982,-3.202,-3.1878,-3.1924,-3.1951,-3.1812,-3.1879,-3.1849,-3.1825,-3.1922,-3.1963,-3.1905,-3.2141,-3.2052,-3.207,-3.2073,-3.2127,-3.216,-3.2188,-3.1811,-3.1809,-3.1807,0,0,-3.2233,-3.2207,-3.2283,-3.2265,-3.2235,-3.2182,-3.2201,-3.215,-3.2124,-3.219,-3.2086,-3.2118,-3.2159,-3.2146,-3.2145,-3.2356,-3.2277,-3.2365,-3.2505,-3.2565,-3.2591,-3.2615,-3.269,-3.2718,-3.238,-3.2381,-3.2381,0,-3.2372,-3.2423,-3.2332,-3.2384,-3.2386,-3.226,-3.2336,-3.2324,-3.2303,-3.2308,-3.2242,-3.2291,-3.2266,-3.2358,-3.2409,-3.2413,-3.2431,-3.2369,-3.2595,-3.2617,-3.2637,-3.2708,-3.2737,-3.2391,-3.239,-3.2389,-3.2388,0,-3.2595,-3.2632,-3.2697,-3.2677,-3.2687,-3.2751,-3.2671,-3.2691,-3.2629,-3.2584,-3.2652,-3.2618,-3.2625,-3.2643,-3.2583,-3.2727,-3.2691,-3.2612,-3.2497,-3.2682,-3.2747,-3.2773,-3.2407,-3.2403,-3.24,-3.2397,0,0,-3.2927,-3.2855,-3.288,-3.2869,-3.2827,-3.2854,-3.2914,-3.2919,-3.2939,-3.2929,-3.2976,-3.3013,-3.2939,-3.2939,-3.2876,-3.2929,-3.3099,-3.2843,-3.2841,-3.2892,-3.3254,-3.3314,-3.3346,-3.3046,-3.305,-3.3054,-3.3256,0,-3.3131,-3.3226,-3.3145,-3.3255,-3.3288,-3.3169,-3.322,-3.3201,-3.316,-3.3184,-3.3139,-3.3167,-3.3067,-3.3066,-3.3113,-3.3068,-3.317,-3.3052,-3.3089,-3.3092,-3.3098,-3.338,-3.3443,-3.3635,-3.3281,-3.3285,-3.3288,0,-3.3382,-3.3381,-3.3494,-3.3444,-3.3455,-3.3502,-3.35,-3.3524,-3.35,-3.3466,-3.3465,-3.3388,-3.3444,-3.3331,-3.3407,-3.3329,-3.3339,-3.332,-3.3325,-3.3325,-3.3201,-3.3387,-3.3694,-3.3723,-3.3327,-3.3324,-3.3321,0,-3.3612,-3.3639,-3.3709,-3.3704,-3.3647,-3.3683,-3.3662,-3.3631,-3.364,-3.3639,-3.3644,-3.3651,-3.3655,-3.3663,-3.359,-3.3515,-3.3675,-3.3557,-3.365,-3.3652,-3.3688,-3.3687,-3.4001,-3.3697,-3.3697,-3.3696,-3.3695,0,-3.3848,-3.3922,-3.3811,-3.3855,-3.3934,-3.3842,-3.3923,-3.389,-3.3864,-3.39,-3.3798,-3.3835,-3.3737,-3.3764,-3.3708,-3.3779,-3.3782,-3.3757,-3.3741,-3.3765,-3.3769,-3.377,-3.3755,-3.3704,-3.3702,-3.37,-3.3699,0,-3.4118,-3.4047,-3.4116,-3.4056,-3.4042,-3.4104,-3.4053,-3.4091,-3.4043,-3.409,-3.4096,-3.4022,-3.4048,-3.3976,-3.3992,-3.3955,-3.4057,-3.402,-3.4065,-3.4053,-3.415,-3.4142,-3.4475,-3.4514,-3.4187,-3.419,-3.4193,0,-3.4273,-3.4326,-3.4272,-3.4287,-3.427,-3.4297,-3.4305,-3.4216,-3.4228,-3.4205,-3.4247,-3.4264,-3.4272,-3.432,-3.4268,-3.428,-3.4242,-3.4358,-3.4243,-3.4266,-3.4243,-3.424,-3.4245,-3.4382,-3.4386,-3.4389,-3.4392,0,-3.4556,-3.4517,-3.453,-3.4532,-3.4543,-3.4541,-3.4531,-3.4551,-3.4456,-3.4475,-3.4499,-3.4506,-3.4521,-3.4539,-3.4539,-3.4518,-3.4441,-3.4429,-3.4451,-3.4476,-3.4499,-3.4487,-3.4129,-3.4421,-3.4418,-3.4416,-3.4415,-3.4413,-3.4771,-3.4813,-3.478,-3.4799,-3.4782,-3.4775,-3.4808,-3.4764,-3.4781,-3.4785,-3.4732,-3.4768,-3.4743,-3.4734,-3.4722,-3.4749,-3.4696,-3.4728,-3.4736,-3.4745,-3.4761,-3.4496,-3.4749,-3.4748,-3.4747,-3.4747,-3.4746,0,-3.5048,-3.502,-3.5038,-3.5027,-3.5042,-3.4965,-3.495,-3.4969,-3.5,-3.4982,-3.4992,-3.5021,-3.5038,-3.4988,-3.4999,-3.503,-3.4995,-3.5036,-3.5032,-3.5029,-3.4808,-3.4788,-3.5064,-3.5064,-3.5064,-3.5064,-3.5064,-3.5064,-3.5193,-3.5258,-3.5217,-3.5274,-3.5246,-3.5278,-3.5277,-3.527,-3.5255,-3.5291,-3.5304,-3.527,-3.524,-3.5247,-3.5261,-3.5245,-3.5254,-3.5308,-3.5281,-3.5075,-3.5044,-3.5015,-3.4995,-3.5311,-3.5311,-3.5498,-3.55,-3.5501]},{"header":{"parameterUnit":"m.s-1","parameterCategory":1,"la1":30.2991,"la2":30.254,"lo1":-89.0895,"lo2":-89.0444,"dy":0.0017,"dx":0.0017,"nx":28,"ny":28,"refTime":"2023-04-17T15:00:00:Z","depth":0,"parameterNumber":3,"parameterNumberName":"V-component_of_WINDS"},"data":[0,0,0,0,0,0,0,0,0,0,0,0,0,0,0,0,0,0,0,0,0,0,0,0,0,0,0,0,0,0,0,0,0,0,0,0,0,0,0,0,0,0,0,0,0,0,0,0,0,0,0,0,0,0,0,0,0,0,-1.2024,-1.2026,0,-1.2129,-1.213,-1.2131,-1.2191,-1.2191,-1.2191,-1.2192,-1.2298,-1.23,-1.2303,0,0,0,0,0,0,0,0,0,0,0,0,0,-1.1874,-1.1877,-1.2024,-1.2026,-1.2027,-1.2129,-1.213,-1.2132,-1.2191,-1.2191,-1.2192,-1.2192,-1.2297,-1.23,-1.2303,0,0,0,0,0,0,0,0,0,0,0,0,0,-1.1955,-1.1878,-1.2024,-1.2069,-1.2074,-1.2129,-1.213,-1.2132,-1.2191,-1.2191,-1.2192,-1.2192,-1.2296,-1.23,-1.2303,-1.2321,0,0,-1.2315,-1.2317,0,0,0,0,0,0,0,0,-1.195,-1.1961,-1.2061,-1.2066,-1.2072,-1.2147,-1.2116,-1.2195,-1.2191,-1.2146,-1.2192,-1.2192,-1.2247,-1.2255,-1.2274,-1.2326,-1.2331,-1.2316,-1.2318,-1.232,-1.2321,0,0,0,0,0,0,0,-1.1945,-1.1956,-1.2066,-1.2062,-1.2069,-1.2083,-1.2095,-1.2132,-1.2194,-1.215,-1.2155,-1.2167,-1.225,-1.227,-1.2277,-1.2332,-1.2316,-1.2319,-1.2322,-1.2323,-1.2403,-1.2403,0,0,0,0,0,0,-1.1932,-1.1951,-1.2062,-1.2069,-1.2011,-1.2086,-1.2099,-1.2123,-1.2194,-1.2205,-1.2166,-1.2169,-1.2263,-1.2272,-1.2281,-1.2306,-1.232,-1.2324,-1.2326,-1.2404,-1.2403,-1.2403,0,0,0,0,0,0,-1.1929,-1.1942,-1.2058,-1.2011,-1.2027,-1.2088,-1.2114,-1.2125,-1.2145,-1.2206,-1.2217,-1.2175,-1.2264,-1.2275,-1.2311,-1.2311,-1.2325,-1.2329,-1.2404,-1.2404,-1.2403,-1.2356,0,0,0,0,0,0,-1.1924,-1.194,-1.1948,-1.2011,-1.203,-1.2086,-1.2114,-1.2126,-1.2151,-1.2156,-1.2217,-1.2227,-1.2265,-1.2304,-1.2315,-1.2316,-1.2332,-1.2404,-1.2404,-1.2403,-1.2358,-1.2354,-1.2351,0,0,0,0,0,-1.1919,-1.193,-1.1948,-1.1961,-1.2041,-1.2086,-1.2097,-1.214,-1.2151,-1.2159,-1.2198,-1.2225,-1.2309,-1.2308,-1.2319,-1.2322,-1.2404,-1.2404,-1.2403,-1.236,-1.2355,-1.2351,0,0,0,0,0,0,-1.1865,-1.194,-1.196,-1.1993,-1.2033,-1.2096,-1.2108,-1.2134,-1.2172,-1.2175,-1.2227,-1.224,-1.227,-1.23,-1.2297,-1.2343,-1.236,-1.2361,-1.2322,-1.2318,-1.2315,-1.2307,-1.2335,0,0,0,0,0,-1.1857,-1.1889,-1.1952,-1.1974,-1.1994,-1.2047,-1.2069,-1.2099,-1.2142,-1.2159,-1.2201,-1.2242,-1.2277,-1.23,-1.2336,-1.2363,-1.2376,-1.237,-1.2367,-1.2364,-1.2365,-1.238,-1.2378,-1.2401,-1.2401,-1.2401,0,0,-1.1841,-1.1886,-1.1902,-1.1965,-1.2,-1.203,-1.2061,-1.2092,-1.2115,-1.2164,-1.22,-1.2232,-1.2281,-1.2311,-1.2327,-1.2337,-1.2361,-1.2363,-1.236,-1.2363,-1.2379,-1.2377,-1.2375,-1.2401,-1.2401,-1.2401,0,0,-1.1828,-1.1865,-1.1888,-1.1921,-1.1973,-1.2009,-1.2014,-1.2074,-1.2097,-1.2134,-1.217,-1.2198,-1.2258,-1.2292,-1.2316,-1.2314,-1.234,-1.2324,-1.2306,-1.2321,-1.2319,-1.2317,-1.2316,-1.2315,-1.2325,-1.2325,-1.2325,0,-1.1801,-1.1849,-1.1896,-1.1925,-1.1951,-1.1996,-1.2019,-1.205,-1.211,-1.2127,-1.2137,-1.2213,-1.225,-1.2288,-1.2288,-1.2306,-1.2314,-1.2317,-1.2315,-1.2314,-1.2314,-1.2313,-1.2312,-1.2322,-1.2323,-1.2323,-1.2323,0,-1.1814,-1.1846,-1.1858,-1.1916,-1.1943,-1.1969,-1.2018,-1.2041,-1.2068,-1.2102,-1.2138,-1.2183,-1.2228,-1.224,-1.2267,-1.2282,-1.2287,-1.2305,-1.2323,-1.2308,-1.2308,-1.2309,-1.2319,-1.232,-1.2321,-1.2321,0,0,-1.177,-1.1852,-1.1856,-1.1882,-1.1943,-1.1968,-1.1996,-1.204,-1.2058,-1.2098,-1.2122,-1.2171,-1.2189,-1.2217,-1.2248,-1.226,-1.2255,-1.2278,-1.228,-1.2271,-1.2274,-1.2259,-1.2258,-1.2272,-1.2273,-1.2273,-1.2269,0,-1.1765,-1.1817,-1.1858,-1.1894,-1.1924,-1.1967,-1.1991,-1.203,-1.2062,-1.2092,-1.2128,-1.2162,-1.2183,-1.22,-1.2214,-1.2252,-1.2256,-1.2253,-1.2294,-1.2295,-1.2281,-1.2258,-1.2243,-1.2238,-1.227,-1.227,-1.227,0,-1.1766,-1.1804,-1.1843,-1.1899,-1.1913,-1.1934,-1.1978,-1.2006,-1.2051,-1.2073,-1.2104,-1.2136,-1.2166,-1.2181,-1.2223,-1.222,-1.2239,-1.226,-1.2261,-1.2266,-1.2281,-1.2262,-1.2237,-1.2236,-1.2271,-1.2271,-1.2271,0,-1.1729,-1.179,-1.1821,-1.1843,-1.1909,-1.1923,-1.1951,-1.1996,-1.202,-1.2058,-1.2074,-1.2115,-1.2137,-1.2168,-1.221,-1.2217,-1.2247,-1.2265,-1.2266,-1.2265,-1.227,-1.2269,-1.2247,-1.2283,-1.2283,-1.2283,-1.2283,0,-1.1719,-1.174,-1.1806,-1.1825,-1.185,-1.1898,-1.1921,-1.1953,-1.1993,-1.2018,-1.2058,-1.2081,-1.2135,-1.2164,-1.2197,-1.2226,-1.2236,-1.2255,-1.2263,-1.2251,-1.2249,-1.2264,-1.2266,-1.2283,-1.2283,-1.2283,-1.2283,0,-1.1682,-1.1727,-1.1763,-1.1823,-1.1839,-1.1855,-1.1906,-1.1925,-1.1959,-1.1991,-1.2001,-1.2054,-1.2091,-1.2136,-1.2187,-1.2209,-1.2234,-1.2247,-1.2219,-1.2224,-1.2222,-1.2221,-1.2209,-1.2209,-1.2244,-1.2244,-1.2244,0,-1.1672,-1.169,-1.1752,-1.1772,-1.1799,-1.183,-1.1855,-1.1902,-1.1926,-1.1978,-1.1991,-1.203,-1.2064,-1.212,-1.2163,-1.2202,-1.2216,-1.2209,-1.2222,-1.2209,-1.2215,-1.2213,-1.2215,-1.2205,-1.2205,-1.2204,-1.2204,0,-1.165,-1.1671,-1.1705,-1.1746,-1.1774,-1.1809,-1.1845,-1.1859,-1.1914,-1.1938,-1.1976,-1.2002,-1.2054,-1.2092,-1.2136,-1.2165,-1.2193,-1.2199,-1.2201,-1.2189,-1.2172,-1.218,-1.2209,-1.2199,-1.22,-1.22,-1.22,-1.2201,-1.1626,-1.1644,-1.169,-1.1726,-1.1758,-1.1791,-1.1812,-1.1848,-1.1881,-1.1927,-1.1952,-1.1989,-1.2033,-1.2095,-1.2122,-1.2151,-1.2162,-1.2165,-1.2166,-1.2166,-1.2161,-1.2167,-1.216,-1.216,-1.216,-1.216,-1.216,0,-1.1606,-1.1637,-1.167,-1.1719,-1.1747,-1.1771,-1.1813,-1.1834,-1.1866,-1.1905,-1.1937,-1.198,-1.2017,-1.2063,-1.2103,-1.2117,-1.2131,-1.2126,-1.2125,-1.2131,-1.215,-1.2144,-1.2114,-1.2114,-1.2114,-1.2114,-1.2114,-1.2114,-1.1598,-1.1628,-1.1655,-1.1701,-1.1732,-1.1769,-1.179,-1.182,-1.1851,-1.1897,-1.1928,-1.1958,-1.1999,-1.2042,-1.2077,-1.209,-1.2102,-1.2093,-1.2109,-1.2126,-1.213,-1.2134,-1.2129,-1.2096,-1.2096,-1.2088,-1.2088,-1.2088]}]]